• In Uzbekistan
  • List of Countries
  • For 7 days
  • Water Temperature
  • Satellite Maps
  • Weather Map
  • Weather Widgets
  • user-avatar
    Login

    Hourly Weather Kitzbuhel

    Today, 30 May, Tuesday

    Time Temperature Precipitation Wind Pressure Humidity
    00:00 +13°C° 0 mm 1 mps 676 mmHg 85%
    01:00 +13°C° 0 mm 1 mps 676 mmHg 83%
    02:00 +13°C° 0 mm 1 mps 676 mmHg 81%
    03:00 +13°C° 0 mm 2 mps 676 mmHg 80%
    04:00 +12°C° 0 mm 2 mps 676 mmHg 79%
    05:00 +15°C° 0.1 mm 1 mps 677 mmHg 77%
    06:00 +18°C° 0.1 mm 1 mps 677 mmHg 74%
    07:00 +20°C° 0.1 mm 1 mps 678 mmHg 72%
    08:00 +21°C° 0.1 mm 1 mps 678 mmHg 68%
    09:00 +23°C° 0.1 mm 1 mps 679 mmHg 63%
    10:00 +24°C° 0.1 mm 1 mps 679 mmHg 59%
    11:00 +24°C° 0.5 mm 1 mps 679 mmHg 61%
    12:00 +25°C° 0.5 mm 1 mps 679 mmHg 63%
    13:00 +25°C° 0.5 mm 1 mps 679 mmHg 66%
    14:00 +24°C° 1.7 mm 1 mps 679 mmHg 69%
    15:00 +24°C° 1.7 mm 1 mps 678 mmHg 73%
    16:00 +23°C° 1.7 mm 1 mps 678 mmHg 77%
    17:00 +22°C° 1.1 mm 1 mps 678 mmHg 82%
    18:00 +21°C° 1.1 mm 1 mps 678 mmHg 88%
    19:00 +19°C° 1.1 mm 1 mps 678 mmHg 93%
    20:00 +18°C° 1 mm 1 mps 678 mmHg 94%
    21:00 +16°C° 1 mm 1 mps 679 mmHg 95%
    22:00 +15°C° 1 mm 1 mps 679 mmHg 96%
    23:00 +15°C° 0.5 mm 1 mps 679 mmHg 96%

    Tomorrow, 31 May, Wednesday

    Time Temperature Precipitation Wind Pressure Humidity
    00:00 +15°C° 0.5 mm 1 mps 679 mmHg 96%
    01:00 +14°C° 0.5 mm 1 mps 679 mmHg 96%
    02:00 +14°C° 0 mm 1 mps 679 mmHg 96%
    03:00 +13°C° 0 mm 1 mps 679 mmHg 96%
    04:00 +13°C° 0 mm 1 mps 679 mmHg 96%
    05:00 +14°C° 0 mm 1 mps 679 mmHg 95%
    06:00 +15°C° 0 mm 1 mps 680 mmHg 93%
    07:00 +18°C° 0 mm 1 mps 680 mmHg 91%
    08:00 +19°C° 0.2 mm 1 mps 680 mmHg 88%
    09:00 +20°C° 0.2 mm 1 mps 681 mmHg 84%
    10:00 +21°C° 0.2 mm 1 mps 681 mmHg 80%
    11:00 +21°C° 0.8 mm 1 mps 681 mmHg 80%
    12:00 +22°C° 0.8 mm 1 mps 681 mmHg 79%
    13:00 +22°C° 0.8 mm 1 mps 681 mmHg 79%
    14:00 +22°C° 1 mm 1 mps 680 mmHg 80%
    15:00 +22°C° 1 mm 1 mps 680 mmHg 81%
    16:00 +21°C° 1 mm 1 mps 680 mmHg 82%
    17:00 +21°C° 0.7 mm 1 mps 680 mmHg 86%
    18:00 +20°C° 0.7 mm 1 mps 680 mmHg 90%
    19:00 +19°C° 0.7 mm 1 mps 680 mmHg 94%
    20:00 +16°C° 0.7 mm 1 mps 680 mmHg 95%
    21:00 +14°C° 0.7 mm 0 mps 680 mmHg 96%
    22:00 +13°C° 0.7 mm 0 mps 680 mmHg 98%
    23:00 +12°C° 0.3 mm 0 mps 679 mmHg 98%

    Day after tomorrow, 1 June, Thursday

    Time Temperature Precipitation Wind Pressure Humidity
    00:00 +12°C° 0.3 mm 0 mps 679 mmHg 98%
    01:00 +12°C° 0.3 mm 0 mps 679 mmHg 98%
    02:00 +12°C° 0.1 mm 0 mps 679 mmHg 98%
    03:00 +12°C° 0.1 mm 0 mps 679 mmHg 98%
    04:00 +12°C° 0.1 mm 0 mps 679 mmHg 98%
    05:00 +13°C° 0.1 mm 0 mps 680 mmHg 96%
    06:00 +15°C° 0.1 mm 1 mps 680 mmHg 95%
    07:00 +16°C° 0.1 mm 1 mps 680 mmHg 93%
    08:00 +18°C° 0.2 mm 1 mps 680 mmHg 90%
    09:00 +18°C° 0.2 mm 1 mps 681 mmHg 87%
    10:00 +19°C° 0.2 mm 1 mps 681 mmHg 84%
    11:00 +20°C° 0.4 mm 1 mps 681 mmHg 81%
    12:00 +21°C° 0.4 mm 1 mps 681 mmHg 78%
    13:00 +21°C° 0.4 mm 1 mps 681 mmHg 76%
    14:00 +21°C° 0.9 mm 1 mps 681 mmHg 77%
    15:00 +21°C° 0.9 mm 1 mps 681 mmHg 78%
    16:00 +21°C° 0.9 mm 1 mps 680 mmHg 78%
    17:00 +20°C° 0.8 mm 1 mps 680 mmHg 83%
    18:00 +19°C° 0.8 mm 1 mps 680 mmHg 87%
    19:00 +19°C° 0.8 mm 1 mps 680 mmHg 91%
    20:00 +16°C° 0.4 mm 1 mps 680 mmHg 93%
    21:00 +15°C° 0.4 mm 1 mps 679 mmHg 94%
    22:00 +13°C° 0.4 mm 1 mps 679 mmHg 96%
    23:00 +13°C° 0.5 mm 1 mps 679 mmHg 96%

    2 June, Friday

    Time Temperature Precipitation Wind Pressure Humidity
    00:00 +13°C° 0.5 mm 1 mps 679 mmHg 96%
    01:00 +13°C° 0.5 mm 1 mps 679 mmHg 96%
    02:00 +13°C° 0.1 mm 1 mps 679 mmHg 96%
    03:00 +12°C° 0.1 mm 1 mps 679 mmHg 96%
    04:00 +12°C° 0.1 mm 1 mps 679 mmHg 96%
    05:00 +13°C° 0.6 mm 1 mps 679 mmHg 93%
    06:00 +15°C° 0.6 mm 1 mps 679 mmHg 90%
    07:00 +18°C° 0.6 mm 1 mps 680 mmHg 86%
    08:00 +19°C° 0.4 mm 1 mps 680 mmHg 81%
    09:00 +20°C° 0.4 mm 1 mps 680 mmHg 75%
    10:00 +22°C° 0.4 mm 1 mps 680 mmHg 69%
    11:00 +22°C° 0.9 mm 1 mps 680 mmHg 70%
    12:00 +23°C° 0.9 mm 1 mps 680 mmHg 70%
    13:00 +23°C° 0.9 mm 2 mps 679 mmHg 71%
    14:00 +23°C° 1 mm 1 mps 679 mmHg 73%
    15:00 +22°C° 1 mm 1 mps 679 mmHg 76%
    16:00 +22°C° 1 mm 1 mps 679 mmHg 79%
    17:00 +21°C° 0.7 mm 1 mps 679 mmHg 84%
    18:00 +20°C° 0.7 mm 1 mps 678 mmHg 89%
    19:00 +17°C° 0.7 mm 0 mps 678 mmHg 93%
    20:00 +18°C° 0.3 mm 1 mps 678 mmHg 94%
    21:00 +15°C° 0.3 mm 1 mps 678 mmHg 94%
    22:00 +14°C° 0.3 mm 1 mps 678 mmHg 94%
    23:00 +14°C° 0.2 mm 1 mps 677 mmHg 94%

    3 June, Saturday

    Time Temperature Precipitation Wind Pressure Humidity
    00:00 +13°C° 0.2 mm 1 mps 677 mmHg 93%
    01:00 +13°C° 0.2 mm 1 mps 677 mmHg 93%
    02:00 +12°C° 0 mm 1 mps 677 mmHg 92%
    03:00 +12°C° 0 mm 1 mps 677 mmHg 92%
    04:00 +12°C° 0 mm 1 mps 676 mmHg 91%
    05:00 +13°C° 0 mm 1 mps 677 mmHg 89%
    06:00 +15°C° 0 mm 1 mps 677 mmHg 86%
    07:00 +18°C° 0 mm 1 mps 678 mmHg 83%
    08:00 +20°C° 0.1 mm 1 mps 678 mmHg 75%
    09:00 +22°C° 0.1 mm 1 mps 679 mmHg 68%
    10:00 +24°C° 0.1 mm 1 mps 679 mmHg 60%
    11:00 +24°C° 0.4 mm 1 mps 679 mmHg 61%
    12:00 +24°C° 0.4 mm 1 mps 678 mmHg 62%
    13:00 +24°C° 0.4 mm 1 mps 678 mmHg 63%
    14:00 +24°C° 0.6 mm 1 mps 678 mmHg 66%
    15:00 +24°C° 0.6 mm 1 mps 678 mmHg 69%
    16:00 +24°C° 0.6 mm 1 mps 678 mmHg 72%
    17:00 +23°C° 0.6 mm 1 mps 677 mmHg 77%
    18:00 +22°C° 0.6 mm 1 mps 677 mmHg 82%
    19:00 +19°C° 0.6 mm 0 mps 677 mmHg 88%
    20:00 +19°C° 0.3 mm 1 mps 677 mmHg 89%
    21:00 +16°C° 0.3 mm 1 mps 676 mmHg 91%
    22:00 +14°C° 0.3 mm 1 mps 676 mmHg 93%
    23:00 +14°C° 0 mm 1 mps 676 mmHg 92%

    4 June, Sunday

    Time Temperature Precipitation Wind Pressure Humidity
    00:00 +14°C° 0 mm 2 mps 676 mmHg 92%
    01:00 +14°C° 0 mm 2 mps 676 mmHg 92%
    02:00 +14°C° 0 mm 2 mps 676 mmHg 92%
    03:00 +14°C° 0 mm 2 mps 676 mmHg 92%
    04:00 +14°C° 0 mm 2 mps 676 mmHg 91%
    05:00 +15°C° 0 mm 2 mps 676 mmHg 89%
    06:00 +17°C° 0 mm 2 mps 676 mmHg 86%
    07:00 +19°C° 0 mm 1 mps 677 mmHg 83%
    08:00 +21°C° 0.1 mm 1 mps 677 mmHg 76%
    09:00 +23°C° 0.1 mm 1 mps 677 mmHg 69%
    10:00 +24°C° 0.1 mm 1 mps 677 mmHg 62%
    11:00 +25°C° 0.4 mm 2 mps 677 mmHg 63%
    12:00 +25°C° 0.4 mm 2 mps 677 mmHg 64%
    13:00 +25°C° 0.4 mm 2 mps 676 mmHg 65%
    14:00 +25°C° 0.8 mm 2 mps 676 mmHg 67%
    15:00 +25°C° 0.8 mm 2 mps 676 mmHg 69%
    16:00 +25°C° 0.8 mm 2 mps 676 mmHg 71%
    17:00 +23°C° 1.1 mm 2 mps 675 mmHg 77%
    18:00 +21°C° 1.1 mm 2 mps 675 mmHg 83%
    19:00 +21°C° 1.1 mm 1 mps 675 mmHg 89%
    20:00 +19°C° 1.4 mm 1 mps 675 mmHg 91%
    21:00 +18°C° 1.4 mm 1 mps 675 mmHg 93%
    22:00 +15°C° 1.4 mm 2 mps 675 mmHg 95%
    23:00 +15°C° 0.4 mm 2 mps 674 mmHg 95%
    Show more